Location: Henderson
(36.0400°N, 114.9810°W)
Time: 21:25:26
(UTC-08:00)

Daily predictions for brighter satellites

Satellite Brightness Start Highest point End
(mag) Time Altitude Azimuth Time Altitude Azimuth Time Altitude Azimuth
ATLAS 2A CENTAUR R/B 4.4 17:25:06 10° WSW 17:31:13 51° S 17:55:29 10° ESE
NOAA 12 4.4 17:48:53 10° SE 17:53:56 46° ENE 17:59:00 10° N
GPS 2-04 Rocket1 3.5 17:50:08 10° SW 17:54:10 43° SSE 17:58:17 10° E
Meteor 1-18 Rocket 4.4 17:50:17 10° N 17:55:53 83° W 18:01:31 10° S
Cosmos 1633 2.8 17:59:06 10° S 18:02:39 50° E 18:06:14 10° NNE
GEOS 3 Rocket 4.3 17:59:52 10° NE 18:04:38 34° ESE 18:09:25 10° S
TSX-5 4.2 18:01:51 10° SW 18:04:58 50° WNW 18:08:06 10° NNE
Cosmos 2322 4.1 18:00:42 10° N 18:06:07 43° ENE 18:11:30 10° SE
Cosmos 1741 Rocket 4.5 18:02:04 10° SSE 18:06:53 38° E 18:11:41 10° NE
METEOR-M 4.1 18:03:29 10° SSE 18:08:44 63° ENE 18:14:01 10° N
Abrixas rocket 2.4 18:07:48 10° SW 18:11:04 55° SE 18:14:08 12° ENE
Gbstr 26 Del rocket 3.0 18:07:30 10° WSW 18:11:25 64° NW 18:15:07 10° NE
OTV 4 2.7 18:10:12 10° S 18:11:44 13° SSE 18:13:15 10° ESE
Cosmos 2181 Rocket 4.1 18:06:05 10° N 18:12:14 55° E 18:18:26 10° SSE
ALOS 2.9 18:08:42 10° SE 18:12:51 33° ENE 18:17:02 10° N
H-2A R/B 4.2 18:10:55 10° ESE 18:13:25 17° ENE 18:15:56 10° NNE
FREGAT/IRIS 2.8 18:13:45 10° SSE 18:16:43 48° ENE 18:19:43 10° N
BREEZE-M DEB (TANK) 3.6 18:14:37 10° NNW 18:16:53 23° NE 18:19:59 13° E
BREEZE-M DEB (TANK) 2.7 18:13:07 10° SW 18:18:41 67° SE 18:20:49 14° ENE
Okean 1 Rocket 3.2 18:14:39 10° S 18:19:00 52° E 18:23:22 10° NNE
Cosmos 1709 Rocket 4.1 18:15:06 10° S 18:21:21 86° W 18:27:32 10° N
Cosmos 1536 3.1 18:17:43 10° SSE 18:21:29 42° E 18:25:16 10° NNE
Cosmos 2074 Rocket 4.4 18:16:21 10° SSE 18:22:02 39° E 18:27:47 10° NNE
COSMOS 2428 3.5 18:17:37 10° N 18:22:37 31° ENE 18:27:30 10° ESE
Cosmos 2237 Rocket 4.1 18:22:06 10° NE 18:23:08 10° NE 18:23:53 10° ENE
Meteor 1-13 Rocket 4.2 18:17:55 10° N 18:23:30 70° E 18:29:08 10° SSE
Cosmos 1140 Rocket 3.6 18:19:56 10° SSW 18:25:03 80° WNW 18:30:14 10° NNE
Cosmos 2184 Rocket 4.4 18:20:24 10° SSE 18:26:14 40° E 18:32:01 10° NNE
Cosmos 1570 Rocket 4.5 18:21:25 10° N 18:26:18 39° ENE 18:31:10 10° SE
Meteor 2-4 Rocket 3.9 18:21:36 10° N 18:26:51 44° ENE 18:31:57 10° SSE
Tiangong 2 2.5 18:24:56 10° W 18:27:45 33° SSW 18:30:34 10° SSE
Okean 1 4.5 18:24:22 10° NNW 18:28:16 47° W 18:32:10 10° SSW
Cosmos 614 Rocket 3.9 18:25:16 10° SSW 18:30:21 85° ESE 18:35:27 10° NNE
Longmarch 3A Rocket 3.3 18:34:23 10° SSW 18:35:06 11° S 18:35:55 10° SSE
BREEZE-M DEB (TANK) 3.0 18:29:10 10° NW 18:36:10 85° SW 18:38:11 19° SE
Cosmos 1025 Rocket 3.6 18:32:49 10° NNE 18:36:51 35° ENE 18:40:52 10° SE
Cosmos 2360 Rocket 2.2 18:32:23 10° NNW 18:38:05 88° WSW 18:43:45 10° SSE
Cosmos 2219 Rocket 3.3 18:34:32 10° N 18:38:56 23° ENE 18:40:18 21° E
Cosmos 2219 3.2 18:33:16 10° S 18:38:58 71° ESE 18:44:42 10° NNE
DELTA 2 R/B (1) 3.7 18:33:45 10° WNW 18:39:22 75° SSW 18:43:28 19° ESE
Spot 2 Rocket 3.6 18:38:38 10° SSE 18:43:31 52° ENE 18:48:26 10° N
Cosmos 2227 Rocket 3.4 18:39:52 10° SSE 18:43:12 21° ESE 18:43:12 21° ESE
Okean 1-7 Rocket 3.5 18:47:31 10° N 18:52:03 74° E 18:56:30 10° SSE
SL-08 ROCKET BODY 4.4 18:45:55 10° S 18:52:04 79° E 18:58:16 10° N
HJ-1C 3.5 18:50:58 10° S 18:54:20 78° WSW 18:57:43 10° NNW
Cosmos 2208 Rocket 4.0 18:49:25 10° NNW 18:54:52 67° ENE 19:00:11 10° SSE
Cosmos 2154 Rocket 4.5 18:49:44 10° SSE 18:55:24 36° E 19:01:05 10° NNE
USA 229 DEB 4.1 18:49:15 10° NNW 18:56:05 46° NE 18:59:39 27° ESE
USA 229 4.1 18:49:21 10° NNW 18:56:11 45° NE 18:59:41 27° ESE
Cosmos 1850 Rocket 4.4 18:51:43 10° SSW 18:56:58 65° WNW 19:02:17 10° NNE
Cosmos 2285 Rocket 4.2 18:52:15 10° N 18:58:28 48° ENE 19:02:16 23° SE
Envisat 4.4 19:01:36 21° NE 19:01:36 21° NE 19:04:04 10° NNE
H-2A R/B (2) 2.7 18:59:05 10° SW 19:01:05 20° S 19:01:05 20° S
Intercosmos 24 4.3 19:01:32 10° S 19:05:36 88° WNW 19:11:24 10° N
SAR-Lupe-4 4.1 19:09:26 43° NNE 19:09:26 43° NNE 19:12:04 10° N
NOSS 0 Rocket 4.5 19:03:08 10° N 19:08:43 35° ENE 19:09:14 35° ENE
Cosmos 2333 Rocket 2.7 19:11:57 10° N 19:17:03 38° NE 19:17:03 38° NE
Genesis I 3.7 19:19:37 10° NW 19:23:29 56° WSW 19:24:06 49° SSW
Resurs 01 Rocket 2.5 19:21:47 10° S 19:26:03 48° W 19:30:19 10° NNW
Helios 1A 3.1 19:27:18 64° N 19:27:18 64° N 19:30:52 10° NNW
GPS 2-04 Rocket1 3.2 19:29:36 10° W 19:33:18 64° WSW 19:33:18 64° WSW
Hubble Space Telescope 2.7 19:30:51 10° SW 19:32:54 21° SSW 19:32:54 21° SSW
Helios 1B rocket 2.9 19:33:31 10° N 19:37:37 58° WNW 19:41:40 10° SSW
Okean 2 3.9 19:34:15 10° NNW 19:37:58 58° WNW 19:37:58 58° WNW
OTV 4 3.9 19:44:30 10° WSW 19:44:31 10° WSW 19:44:31 10° WSW
ATLAS CENTAUR R/B 3.8 19:45:45 10° WSW 19:48:01 23° WSW 19:48:01 23° WSW
COSMOS 2428 4.2 20:01:47 10° NW 20:06:49 33° WSW 20:09:38 21° SSW
Cosmos 2297 Rocket 4.3 20:01:45 10° SSW 20:02:40 15° SSW 20:02:40 15° SSW
Cosmos 2237 Rocket 3.3 20:02:26 10° NNW 20:05:45 36° N 20:05:45 36° N
Atlas Centaur 2 4.2 20:03:33 10° SW 20:06:21 20° SSW 20:06:21 20° SSW
Cosmos 2219 Rocket 3.3 20:17:45 10° NW 20:22:05 41° WNW 20:22:05 41° WNW
Cosmos 2227 Rocket 3.7 20:22:13 10° SW 20:25:12 29° WSW 20:25:12 29° WSW
Cosmos 2333 Rocket 4.4 20:56:38 10° NW 20:59:07 21° WNW 20:59:07 21° WNW
